Location: Bremen
(53.0796°N, 8.8241°E)
Time: 03:29:49
(UTC+01:00)

ISS - Visible Passes

Search period start: 21 January 2018 00:00
Search period end: 31 January 2018 00:00
Orbit: 402 x 407 km, 51.6° (Epoch: 21 January)

Date Brightness Start Highest point End Pass type
(mag) Time Alt. Az. Time Alt. Az. Time Alt. Az.
26 Jan -1.3 18:55:57 10° SSE 18:56:26 11° SSE 18:56:26 11° SSE visible
27 Jan -1.4 19:38:08 10° SW 19:39:08 17° SSW 19:39:08 17° SSW visible
28 Jan -2.2 18:46:18 10° SSW 18:48:51 21° SSE 18:49:05 21° SE visible
28 Jan -0.4 20:21:42 10° WSW 20:21:45 10° WSW 20:21:45 10° WSW visible
29 Jan -1.6 17:54:50 10° S 17:56:42 14° SE 17:58:35 10° ESE visible
29 Jan -2.4 19:29:28 10° SW 19:31:38 33° SSW 19:31:38 33° SSW visible
30 Jan -2.8 18:37:20 10° SW 18:40:19 33° SSE 18:41:27 25° ESE visible
30 Jan -0.9 20:13:17 10° WSW 20:14:06 16° WSW 20:14:06 16° WSW visible
